STARLINK-32356

Last updated on Tue Oct 01 2024 00:02:04 GMT+0000 (Coordinated Universal Time)

1 60921U 24154U 24273.82787298 .00001645 00000+0 37611-4 0 9990 2 60921 53.1625 207.0855 0000858 71.4545 288.6558 15.49313972 5827
UTC large
Height (km)
Speed (km/s)
/
Latitude / Longitude
Inclination (degrees)
Orbital Period (minutes)
Azimuth
Elevation
Range (km)
Doppler Factor

Next 0 passes for location: London (51.5072 / 0.1276)

Sorry there are no passes over London.